Showing default

GLOBALSTAR M038, 25624

Orbit data source: Space-Track

GLOBALSTAR M038, 25624 is a payload satellite owned by Globalstar (US) in LEO that was launched on Tue, 09 Feb 1999 UTC via a SOYUZ-U-PVB launch vehicle from the Tyuratam Missile And Space Complex (TTMTR). Payloads include a variety of satellites, spacecraft, and rockets equipped with specific instruments for various scientific and technological missions. These include communications satellites like Starlink; space stations such as the ISS; scientific satellites like the Hubble; Earth observation satellites from companies like Planet Labs, Umbra, and HawkEye 360; GPS; miniature CubeSats for education and research; and military/defense satellites.

Loading next visibility...
GLOBALSTAR M038 details
Identifier
25624, 1999-004D
Orbit
LEO
Last TLE update8 hours ago
Origin
Flag of USGlobalstar (US / GLOB)
ManufacturerSS/Loral
MissionNon-operational Commercial Communications
Bus & MotorLS-400, LS-400 AOCS
Mass450 kg wet, 380 kg dry
Launch date (UTC)
1999-02-09 (26 years ago)
Launch vehicle
SOYUZ-U-PVB
Launch site
Tyuratam Missile And Space Complex (TTMTR)
Object type
Payload
Rocket body
Debris
Shape & HBRBox + 2 Pan, 12 m
Radar Cross Section5.587 m², Large (>1 m²)

Expand to show TLE details & history

TLE from 8 hours ago
0 GLOBALSTAR M038
1 25624U 99004D   24361.13757015 -.00000038  00000-0  46912-3 0  9993
2 25624  51.9942 209.9326 0002976  64.0224  85.6562 12.32516774180991
Epoch: 2024-12-26T03:18Z
Definitive object data (Epoch: 2024-12-26T03:18:06.06Z)
Latitude23.4707°
Longitude-134.44808°
Altitude1,538.949 km
Speed7.1 km/s
True Right ascension00h 40m 47s
True Declination23° 21' 28"
Sunlit
Object was in daylight at TLE epoch
Visualization TLE readout
Latitude9.61511°
Longitude-123.2301°
Altitude1,538.96 km
Speed7.098 km/s
Apparent Right ascension00h 19m 47s
Apparent Declination-13° 05' 00"
Sunlit
Object is in daylight
Visualization observer readout
Local Sidereal Time10:32:22
Azimuth311.11° NW
Elevation-54.268°
Doppler factor1
Orbital elements
Apogee altitude1,541.229 km
Perigee altitude1,536.517 km
Semi-major axis7,917.01 km
Eccentricity0.0002976
Inclination51.9942°
RAAN209.9326°
Arg. of periapsis64.0224°
True anomaly85.69021°
Mean anomaly85.6562°
Eccentric anomaly85.6732°
Mean motion3.08107 °/min
BSTAR0.00046912
Orbital period116.84 mins
Loading maneuver chart data...
Loading historical data...
Loading historical data...
Loading historical data...
Loading historical data...
Loading historical data...
Loading historical data...
Loading historical data...

GLOBALSTAR M038 Visibility forecast

Observer location: undefined°, undefined

Span
Click to sort rows by Start time (UTC) header in descending order
Start Az.
Max El. time (UTC)
Max El. Az.
Max El.
End time (UTC)
End Az.
6 mins2024-12-26 14:18:03.966Z136.591° SSE2024-12-26 14:21:03.966Z116.674° SE12.78°2024-12-26 14:24:03.966Z96.639° ESE
16 mins2024-12-26 16:15:03.966Z205.743° SW2024-12-26 16:22:03.966Z139.296° SSE40.534°2024-12-26 16:31:03.966Z57.41° ENE
16 mins2024-12-26 18:18:03.966Z260.686° W2024-12-26 18:25:03.966Z329.488° NNW39.83°2024-12-26 18:34:03.966Z51.525° ENE
15 mins2024-12-26 20:23:03.966Z299.512° NW2024-12-26 20:30:03.966Z3.605° NNE32.295°2024-12-26 20:38:03.966Z66.482° ENE
16 mins2024-12-26 22:27:03.966Z311.968° NW2024-12-26 22:34:03.966Z18.883° NNE40.033°2024-12-26 22:43:03.966Z103.605° ESE
16 mins2024-12-27 00:30:03.966Z299.479° NW2024-12-27 00:37:03.966Z232.866° WSW40.161°2024-12-27 00:46:03.966Z152.381° SSE
5 mins2024-12-27 02:36:03.966Z259.86° W2024-12-27 02:38:03.966Z246.598° WSW12.275°2024-12-27 02:41:03.966Z226.677° WSW
|